Theta_e
328 327 327 330 331 331 333 333 332 331 336 342 345 346 349 346 347 351 352 353 352 350 347 346 345 345 346 346 345 343 342 340
327 328 328 330 330 332 332 334 336 334 338 337 351 349 349 351 348 353 354 353 352 348 344 344 344 344 345 344 344 342 341 341
329 329 329 329 331 331 332 337 335 335 338 347 347 347 346 352 348 352 355 353 353 347 345 345 344 343 344 343 343 342 343 342
330 329 329 329 329 331 333 338 335 338 336 343 346 345 345 350 353 352 354 353 351 347 346 345 344 344 343 342 342 342 343 342
331 330 329 330 329 332 335 341 340 337 339 345 345 344 346 353 354 355 355 354 350 348 347 346 346 344 343 341 341 342 343 342
331 332 329 330 329 331 334 336 333 338 333 349 346 346 349 354 355 353 351 351 351 349 348 346 347 346 344 340 340 341 342 342
334 335 335 330 330 330 333 333 335 334 334 336 348 347 348 353 355 350 348 348 348 348 348 347 346 347 345 342 340 339 341 340
339 337 339 338 332 332 331 332 334 336 336 346 345 346 347 348 352 351 349 346 344 343 343 344 346 346 346 345 341 338 338 339
335 339 340 339 336 337 335 339 338 339 343 346 346 345 344 341 340 348 343 339 340 340 339 338 339 341 344 345 343 340 338 338
335 342 342 345 343 342 342 342 343 345 346 345 344 344 346 347 342 341 340 338 337 336 336 336 337 337 338 342 345 341 337 336
334 335 333 343 344 344 344 344 344 344 344 343 345 346 342 339 338 336 334 332 332 333 333 332 334 335 338 340 345 341 337 335
334 333 336 341 344 342 343 346 345 342 344 347 346 350 347 336 335 332 329 329 329 329 330 330 332 339 341 341 343 340 336 338
334 333 331 342 341 341 348 348 343 341 343 346 348 344 336 332 330 328 328 329 327 326 324 324 327 330 329 328 326 326 329 327
334 334 335 341 341 347 350 345 343 343 343 345 338 334 332 329 327 326 327 327 323 321 321 321 321 321 318 317 317 317 317 313
336 344 344 340 345 343 345 345 343 344 342 339 335 332 329 327 326 325 324 322 320 318 317 317 317 316 315 314 313 312 312 310
342 342 343 343 341 342 343 343 340 338 337 335 332 328 326 326 325 323 322 320 318 316 315 314 315 314 314 313 313 311 310 310
337 340 341 341 341 341 339 336 335 334 334 330 328 327 326 325 325 323 320 318 316 316 315 314 314 314 314 314 314 313 312 312
330 337 337 340 340 337 337 335 334 331 328 326 326 325 324 325 324 322 320 319 318 316 316 315 315 315 315 315 315 316 314 312
335 335 338 339 337 335 335 334 332 331 327 326 325 326 325 323 322 320 320 320 318 316 316 315 316 317 316 314 313 313 311 308
Wind_Speed
9 16 16 13 14 16 11 6 8 9 5 8 4 5 6 7 7 8 8 9 9 7 7 8 5 2 1 1 1 2 6 4
11 7 8 9 14 10 9 14 8 6 5 8 8 9 8 7 8 7 8 10 9 7 9 7 4 2 2 1 2 4 5 5
9 12 14 10 11 10 8 4 9 9 5 5 6 8 8 5 6 8 10 10 8 7 7 6 3 1 3 2 3 4 3 4
14 5 6 18 19 18 11 13 10 9 6 6 5 7 5 6 5 6 11 11 7 6 6 3 1 1 2 2 2 3 3 4
11 9 9 9 12 11 12 7 7 9 3 4 5 7 7 6 7 7 9 11 8 7 6 3 1 2 3 4 3 5 5 4
10 4 8 18 15 13 13 10 12 11 8 6 8 9 10 9 9 11 7 7 7 5 4 3 1 2 7 6 5 6 6 5
12 6 6 10 14 16 17 16 15 13 8 2 10 10 9 11 10 11 8 6 5 4 3 5 7 5 7 8 7 7 8 8
11 6 9 11 15 13 15 16 11 10 10 3 10 12 12 10 10 11 9 11 4 1 2 5 6 9 9 10 10 9 10 11
13 4 6 11 12 12 12 9 12 12 1 9 12 12 11 9 8 12 11 6 2 4 6 9 10 11 12 12 12 12 13 13
10 3 12 5 2 5 7 5 4 2 4 8 12 14 12 12 11 9 6 2 2 5 8 11 13 13 13 15 15 16 16 15
10 11 11 8 5 3 7 9 4 3 7 12 15 18 11 10 9 7 4 2 4 7 10 14 16 15 14 14 17 18 18 17
6 14 14 2 6 3 2 8 7 6 10 14 14 10 6 7 7 6 5 2 4 6 7 10 13 9 9 11 14 18 17 9
10 10 6 5 3 1 8 2 6 7 9 10 6 7 12 8 7 6 5 5 5 6 9 11 9 8 16 21 20 19 20 18
9 11 14 5 6 5 5 5 6 8 9 13 14 13 11 9 7 5 6 7 8 10 12 14 12 18 20 22 20 24 26 26
2 4 5 2 4 3 1 7 8 9 11 14 13 11 10 8 6 6 7 9 9 12 17 20 18 20 23 20 26 29 32 30
3 5 4 5 6 3 5 7 7 10 11 12 14 11 10 8 7 7 8 10 11 14 17 18 20 23 25 25 27 30 32 31
2 6 6 6 7 9 11 10 11 11 11 12 13 11 10 9 8 11 12 13 13 16 18 19 22 24 22 25 29 31 30 27
2 7 2 8 9 11 13 12 12 15 13 11 12 11 12 9 13 13 15 16 17 17 20 20 21 21 22 22 24 27 29 25
4 7 5 10 10 9 12 12 12 14 15 15 15 16 16 14 14 17 19 20 22 21 21 20 22 24 23 24 24 23 26 24
Wind_Direction
215 206 221 186 221 244 273 254 279 266 232 235 194 178 173 188 190 180 165 142 162 141 116 99 82 22 332 44 171 76 112 95
166 184 221 250 211 203 227 264 256 211 260 270 187 193 189 198 188 167 150 149 151 126 110 95 60 358 343 328 187 126 104 102
164 207 205 193 220 236 293 305 293 270 222 86 170 182 190 164 181 170 159 160 148 114 106 98 88 14 302 219 208 191 158 122
226 150 268 209 214 213 236 210 229 298 312 131 167 198 208 150 154 172 160 164 108 135 139 116 134 219 212 253 217 202 139 107
209 193 203 227 213 221 230 282 225 259 250 140 148 171 149 129 131 149 160 116 151 164 160 159 190 232 245 231 210 177 160 125
255 354 219 205 231 216 217 228 239 243 272 151 174 169 139 126 134 118 126 163 170 169 173 210 235 196 231 224 208 192 193 155
263 296 265 257 217 210 213 236 262 265 261 251 177 162 133 124 129 129 133 151 148 160 220 254 250 221 237 229 209 203 197 175
250 220 244 240 237 253 233 249 269 276 270 45 135 125 119 118 140 149 158 107 111 14 316 300 279 254 238 225 218 203 194 181
247 174 252 231 224 228 214 240 237 230 44 142 141 142 129 126 132 101 97 110 162 282 301 297 285 270 261 242 215 202 198 179
256 201 236 69 143 233 250 212 202 132 96 146 139 109 95 83 106 105 109 104 332 308 298 294 294 284 269 251 221 199 197 182
245 234 242 164 141 186 219 190 173 178 147 132 132 114 89 99 100 98 85 40 320 318 310 303 295 285 267 246 224 197 194 188
200 255 239 58 104 12 229 235 140 161 152 148 158 199 106 103 103 103 90 37 344 334 328 328 326 300 257 217 205 187 187 141
218 241 243 105 112 213 227 98 118 142 145 150 144 61 118 114 95 82 77 62 41 34 23 13 20 68 86 85 78 108 117 121
237 258 244 115 153 249 51 91 119 120 128 99 111 113 108 104 97 89 77 71 62 57 42 43 56 82 73 77 104 110 112 103
310 36 66 66 45 92 112 125 113 118 120 127 125 120 118 114 110 92 82 78 77 73 65 59 67 82 84 88 101 102 105 102
192 148 118 121 138 143 137 112 110 117 124 126 123 126 130 129 116 100 88 88 92 88 78 71 76 84 93 98 99 97 94 96
184 141 146 147 113 119 105 107 108 104 104 122 128 134 135 127 117 110 106 101 96 93 94 92 95 94 97 101 103 100 99 102
268 128 211 155 139 135 131 129 123 122 121 125 132 133 131 121 117 116 113 112 102 97 101 99 99 98 102 102 105 109 107 105
80 90 89 121 141 145 135 136 136 131 135 136 139 136 120 117 115 115 111 110 112 106 106 108 106 106 106 107 106 104 106 109